Location: Neuvy Saint Sepulchre
(46.5953°N, 1.8122°E)
Time: 07:05:06
(UTC+02:00)

ISS - Pass Details

Date: 16 July 2021
Orbit: 419 x 421 km, 51.6° (Epoch: 03 August)

Event Time Altitude Azimuth Distance (km) Brightness Sun altitude
Rises 03:44:03 0° 296° (WNW) 2,372 0.1 -18.0°
Reaches altitude 10° 03:46:10 10° 296° (WNW) 1,505 -0.9 -17.9°
Maximum altitude 03:49:33 89° 26° (NNE) 425 -3.8 -17.6°
Drops below altitude 10° 03:52:55 10° 117° (ESE) 1,497 -1.0 -17.3°
Sets 03:55:00 0° 117° (ESE) 2,358 0.1 -17.2°
